Flag for U.S.A. Weather past 2 weeks in Aurora, Colorado, U.S.A.

Now
42 °F

Light rain. Fog.


Feels Like: 34 °F
Forecast: 40 / 47 °F
Wind: 16 mph from East

Location: Buckley Air Force Base

Current Time: Apr 26, 2015 at 10:48:47 AM

Latest Report: Apr 26, 2015 at 9:58 AM


Visibility: 4 mi

Pressure: 29.78 "Hg

Humidity: 99%

Dew point: 41 °F

Location of AuroraLocation

Historic Weather in Aurora — Graph

°F

Aurora temperature yesterday

Maximum temperature yesterday: 66 °F (at 12:58 PM)
Minimum temperature yesterday: 40 °F (at 5:58 AM)
Average temperature yesterday: 53 °F

Past Weeks' High & Low Weather Summary

 TemperatureHumidityPressure
High74 °F (Apr 14, 3:58 PM)100% (Apr 16, 7:58 AM)30.17 "Hg (Apr 16, 7:58 AM)
Low31 °F (Apr 20, 6:58 AM)9% (Apr 14, 1:58 PM)29.44 "Hg (Apr 15, 3:58 AM)
Average48 °F55%29.83 "Hg
* Reported Apr 11 9:58 AM — Apr 26 9:58 AM, Aurora, Weather by CustomWeather, © 2015

Note: Actual official high and low records may vary slightly from our data, if they occured in-between our weather recording intervals... More about our weather records

Advertising

Aurora weather history for previous 24 hours

 ConditionsComfort  
Time TempWeatherWind HumidityBarometerVisibility
9:58 AM
Sun, Apr 26
42 °FLight rain. Fog.16 mph99%29.78 "Hg4 mi
8:58 AM42 °FLight rain. Cloudy.12 mph100%29.76 "Hg6 mi
7:58 AM41 °FLight rain. Fog.16 mph100%29.74 "Hg3 mi
6:58 AM41 °FLight rain. Overcast.16 mph100%29.73 "Hg10 mi
5:58 AM40 °FThunderstorms. Mostly cloudy.14 mph100%29.71 "Hg10 mi
4:58 AM40 °FThunderstorms. Mostly cloudy.14 mph98%29.67 "Hg10 mi
3:58 AM43 °FThunderstorms. Fog.15 mph97%29.67 "Hg6 mi
2:58 AM45 °FThunderstorms. Mostly cloudy.5 mph100%29.65 "Hg10 mi
1:58 AM45 °FThunderstorms. Mostly cloudy.6 mph99%29.64 "Hg10 mi
12:58 AM46 °FOvercast.6 mph90%29.64 "Hg10 mi
11:58 PM
Sat, Apr 25
47 °FOvercast.5 mph82%29.64 "Hg10 mi
10:58 PM48 °FOvercast.2 mph75%29.65 "Hg10 mi
9:58 PM52 °FPartly cloudy.1 mph61%29.63 "Hg10 mi
8:58 PM56 °FPassing clouds.18 mph43%29.59 "Hg10 mi
7:58 PM55 °FPartly sunny.6 mph47%29.62 "Hg10 mi
6:58 PM56 °FBroken clouds.7 mph42%29.61 "Hg10 mi
5:58 PM59 °FBroken clouds.10 mph35%29.61 "Hg10 mi
4:58 PM61 °FPartly sunny.23 mph29%29.59 "Hg10 mi
3:58 PM62 °FPartly sunny.8 mph29%29.57 "Hg10 mi
2:58 PM63 °FPartly sunny.9 mph25%29.58 "Hg10 mi
1:58 PM66 °FPartly sunny.13 mph19%29.54 "Hg10 mi
12:58 PM66 °FBroken clouds.8 mph20%29.56 "Hg10 mi
11:58 AM65 °FPartly sunny.6 mph20%29.58 "Hg10 mi
10:58 AM62 °FPartly sunny.3 mph23%29.60 "Hg10 mi
Weather by CustomWeather, © 2015

See weather overviewHow to use our weather pages